DLH8HT EDDM-EDDF

Flight info

Callsign DLH8HT
Flight time 0h 37m
Altitude 24000
Route GIVMI1N/26R GIVMI Y101 ERNAS T161 DEBHI DEBHI1B
Aircraft A321/M-SDE3FGHIRWY/LB1

Departure

Time 2026-05-05 09:41
Airport Munich Airport (EDDM)

Arrival

Time 2026-05-05 10:19
Airport Frankfurt Main Airport (EDDF)
Time Latitude Longitude Altitude Speed Heading
2026-05-05 09:19 48.35850 11.79233 1470 ft 0 kts 264°
2026-05-05 09:30 48.35851 11.79252 1470 ft 2 kts 264°
2026-05-05 09:30 48.35853 11.79274 1470 ft 2 kts 264°
2026-05-05 09:30 48.35855 11.79297 1469 ft 2 kts 264°
2026-05-05 09:30 48.35856 11.79319 1469 ft 2 kts 264°
2026-05-05 09:31 48.35858 11.79341 1469 ft 2 kts 264°
2026-05-05 09:31 48.35858 11.79364 1469 ft 2 kts 294°
2026-05-05 09:31 48.35849 11.79382 1468 ft 2 kts 329°
2026-05-05 09:31 48.35840 11.79387 1468 ft 1 kts 352°
2026-05-05 09:32 48.35833 11.79388 1468 ft 0 kts 354°
2026-05-05 09:35 48.35889 11.79378 1468 ft 6 kts 352°
2026-05-05 09:35 48.35928 11.79350 1468 ft 6 kts 332°
2026-05-05 09:36 48.35977 11.79336 1468 ft 10 kts 353°
2026-05-05 09:36 48.36075 11.79319 1466 ft 17 kts 354°
2026-05-05 09:36 48.36174 11.79308 1462 ft 10 kts 17°
2026-05-05 09:36 48.36208 11.79396 1462 ft 10 kts 82°
2026-05-05 09:37 48.36218 11.79507 1461 ft 11 kts 83°
2026-05-05 09:37 48.36227 11.79635 1459 ft 13 kts 84°
2026-05-05 09:37 48.36238 11.79778 1459 ft 16 kts 83°
2026-05-05 09:37 48.36254 11.79996 1456 ft 24 kts 84°
2026-05-05 09:38 48.36276 11.80292 1454 ft 31 kts 85°
2026-05-05 09:38 48.36300 11.80598 1453 ft 28 kts 83°
2026-05-05 09:38 48.36322 11.80876 1449 ft 24 kts 84°
2026-05-05 09:38 48.36337 11.81071 1449 ft 16 kts 84°
2026-05-05 09:39 48.36346 11.81180 1449 ft 8 kts 71°
2026-05-05 09:39 48.36393 11.81214 1449 ft 7 kts 347°
2026-05-05 09:39 48.36427 11.81158 1449 ft 7 kts 293°
2026-05-05 09:39 48.36445 11.81095 1449 ft 6 kts 293°
2026-05-05 09:40 48.36470 11.81007 1449 ft 12 kts 293°
2026-05-05 09:40 48.36514 11.80853 1449 ft 17 kts 293°
2026-05-05 09:40 48.36561 11.80681 1451 ft 19 kts 287°
2026-05-05 09:40 48.36556 11.80397 1453 ft 52 kts 263°
2026-05-05 09:41 48.36483 11.79444 1458 ft 126 kts 264°
2026-05-05 09:41 48.36371 11.77944 1786 ft 152 kts 264°
2026-05-05 09:41 48.36290 11.76384 2441 ft 152 kts 265°
2026-05-05 09:41 48.36181 11.74780 2898 ft 159 kts 265°
2026-05-05 09:42 48.36050 11.73061 3196 ft 174 kts 264°
2026-05-05 09:42 48.35900 11.71180 3489 ft 192 kts 264°
2026-05-05 09:42 48.35882 11.69107 3823 ft 208 kts 280°
2026-05-05 09:42 48.36342 11.66924 4166 ft 228 kts 294°
2026-05-05 09:43 48.37086 11.64718 4541 ft 248 kts 300°
2026-05-05 09:43 48.37994 11.62375 5013 ft 267 kts 301°
2026-05-05 09:43 48.38970 11.59956 5644 ft 278 kts 302°
2026-05-05 09:43 48.39984 11.57462 6363 ft 282 kts 302°
2026-05-05 09:44 48.41012 11.54937 6824 ft 284 kts 302°
2026-05-05 09:44 48.42032 11.52427 7046 ft 287 kts 302°
2026-05-05 09:44 48.43088 11.49823 7634 ft 294 kts 301°
2026-05-05 09:44 48.44139 11.47234 8624 ft 293 kts 301°
2026-05-05 09:45 48.45300 11.44733 9478 ft 297 kts 314°
2026-05-05 09:45 48.46992 11.42943 10280 ft 301 kts 337°
2026-05-05 09:45 48.48984 11.42157 11070 ft 304 kts 350°
2026-05-05 09:45 48.51104 11.41598 11717 ft 314 kts 351°
2026-05-05 09:46 48.53302 11.41036 12109 ft 331 kts 351°
2026-05-05 09:46 48.55629 11.40426 12562 ft 346 kts 350°
2026-05-05 09:46 48.58013 11.39788 13247 ft 352 kts 350°
2026-05-05 09:46 48.60447 11.39125 13988 ft 356 kts 349°
2026-05-05 09:47 48.62871 11.38460 14705 ft 360 kts 349°
2026-05-05 09:47 48.65325 11.37783 15429 ft 363 kts 349°
2026-05-05 09:47 48.67813 11.37079 16150 ft 365 kts 347°
2026-05-05 09:47 48.70240 11.35928 16823 ft 368 kts 336°
2026-05-05 09:48 48.72499 11.34151 17486 ft 370 kts 326°
2026-05-05 09:48 48.74657 11.32004 18155 ft 372 kts 323°
2026-05-05 09:48 48.76783 11.29794 18807 ft 376 kts 323°
2026-05-05 09:48 48.78965 11.27535 19449 ft 379 kts 323°
2026-05-05 09:49 48.81147 11.25298 20066 ft 383 kts 323°
2026-05-05 09:49 48.83337 11.23005 20686 ft 385 kts 321°
2026-05-05 09:49 48.85459 11.20490 21298 ft 387 kts 317°
2026-05-05 09:49 48.87480 11.17783 21886 ft 390 kts 315°
2026-05-05 09:50 48.89452 11.15036 22446 ft 393 kts 315°
2026-05-05 09:50 48.91488 11.12179 22999 ft 397 kts 315°
2026-05-05 09:50 48.93513 11.09342 23518 ft 400 kts 315°
2026-05-05 09:50 48.95570 11.06465 23820 ft 403 kts 315°
2026-05-05 09:51 48.97631 11.03583 23831 ft 403 kts 315°
2026-05-05 09:51 48.99682 11.00712 23835 ft 403 kts 315°
2026-05-05 09:51 49.01756 10.97803 23833 ft 403 kts 314°
2026-05-05 09:51 49.03804 10.94923 23832 ft 403 kts 314°
2026-05-05 09:52 49.05849 10.92046 23833 ft 403 kts 314°
2026-05-05 09:52 49.07902 10.89152 23834 ft 403 kts 314°
2026-05-05 09:52 49.09943 10.86274 23831 ft 402 kts 314°
2026-05-05 09:52 49.11998 10.83372 23831 ft 402 kts 314°
2026-05-05 09:53 49.14041 10.80479 23832 ft 402 kts 314°
2026-05-05 09:53 49.16079 10.77590 23836 ft 402 kts 314°
2026-05-05 09:53 49.18124 10.74690 23838 ft 401 kts 315°
2026-05-05 09:53 49.20156 10.71725 23838 ft 400 kts 312°
2026-05-05 09:54 49.22101 10.68706 23840 ft 400 kts 311°
2026-05-05 09:54 49.24028 10.65669 23841 ft 400 kts 311°
2026-05-05 09:54 49.25945 10.62637 23843 ft 401 kts 311°
2026-05-05 09:54 49.27887 10.59567 23847 ft 401 kts 311°
2026-05-05 09:55 49.29812 10.56521 23847 ft 400 kts 311°
2026-05-05 09:55 49.31763 10.53435 23848 ft 400 kts 311°
2026-05-05 09:55 49.33687 10.50390 23849 ft 400 kts 311°
2026-05-05 09:55 49.35545 10.47263 23844 ft 398 kts 308°
2026-05-05 09:56 49.37286 10.43937 23845 ft 397 kts 304°
2026-05-05 09:56 49.38881 10.40535 23847 ft 396 kts 303°
2026-05-05 09:56 49.40465 10.37063 23845 ft 396 kts 302°
2026-05-05 09:56 49.42048 10.33581 23850 ft 396 kts 302°
2026-05-05 09:57 49.43625 10.30111 23849 ft 396 kts 301°
2026-05-05 09:57 49.45188 10.26656 23845 ft 396 kts 302°
2026-05-05 09:57 49.46765 10.23175 23848 ft 396 kts 302°
2026-05-05 09:57 49.48317 10.19748 23849 ft 395 kts 302°
2026-05-05 09:58 49.49902 10.16248 23770 ft 393 kts 302°
2026-05-05 09:58 49.51440 10.12847 23117 ft 395 kts 302°
2026-05-05 09:58 49.53029 10.09329 22164 ft 402 kts 302°
2026-05-05 09:58 49.54600 10.05852 21566 ft 400 kts 302°
2026-05-05 09:59 49.56181 10.02350 21012 ft 397 kts 302°
2026-05-05 09:59 49.57750 9.98866 20482 ft 393 kts 302°
2026-05-05 09:59 49.59296 9.95432 19959 ft 391 kts 302°
2026-05-05 09:59 49.60818 9.92044 19437 ft 388 kts 302°
2026-05-05 10:00 49.62351 9.88631 18923 ft 386 kts 302°
2026-05-05 10:00 49.63864 9.85253 18415 ft 383 kts 302°
2026-05-05 10:00 49.65368 9.81892 17911 ft 381 kts 301°
2026-05-05 10:00 49.66869 9.78530 17404 ft 378 kts 302°
2026-05-05 10:01 49.68333 9.75247 16922 ft 376 kts 302°
2026-05-05 10:01 49.69804 9.71944 16432 ft 374 kts 302°
2026-05-05 10:01 49.71260 9.68670 15946 ft 371 kts 302°
2026-05-05 10:01 49.72717 9.65386 15454 ft 369 kts 302°
2026-05-05 10:02 49.74160 9.62140 14969 ft 366 kts 302°
2026-05-05 10:02 49.75607 9.58900 14482 ft 363 kts 302°
2026-05-05 10:02 49.77007 9.55732 14011 ft 361 kts 302°
2026-05-05 10:02 49.78415 9.52531 13534 ft 358 kts 302°
2026-05-05 10:03 49.79832 9.49312 13045 ft 365 kts 302°
2026-05-05 10:03 49.81248 9.46103 12549 ft 365 kts 302°
2026-05-05 10:03 49.82680 9.42851 12063 ft 362 kts 302°
2026-05-05 10:03 49.84085 9.39660 11565 ft 359 kts 303°
2026-05-05 10:04 49.85453 9.36448 11077 ft 355 kts 299°
2026-05-05 10:04 49.86521 9.33042 10851 ft 351 kts 289°
2026-05-05 10:04 49.87277 9.29556 10842 ft 335 kts 285°
2026-05-05 10:04 49.87923 9.26177 10846 ft 318 kts 283°
2026-05-05 10:05 49.88533 9.22907 10843 ft 317 kts 284°
2026-05-05 10:05 49.89142 9.19637 10831 ft 318 kts 284°
2026-05-05 10:05 49.89761 9.16346 10830 ft 319 kts 284°
2026-05-05 10:05 49.90389 9.13032 10829 ft 319 kts 284°
2026-05-05 10:06 49.91004 9.09787 10833 ft 309 kts 284°
2026-05-05 10:06 49.91595 9.06676 10826 ft 293 kts 284°
2026-05-05 10:06 49.92158 9.03721 10770 ft 280 kts 284°
2026-05-05 10:06 49.92704 9.00827 10464 ft 279 kts 283°
2026-05-05 10:07 49.93253 8.97938 10086 ft 279 kts 286°
2026-05-05 10:07 49.94141 8.95295 9702 ft 282 kts 304°
2026-05-05 10:07 49.95359 8.92939 9366 ft 281 kts 311°
2026-05-05 10:07 49.96971 8.91242 8958 ft 284 kts 343°
2026-05-05 10:08 49.98905 8.91069 8648 ft 281 kts
2026-05-05 10:08 50.00777 8.91909 8326 ft 279 kts 25°
2026-05-05 10:08 50.02416 8.93483 7967 ft 277 kts 41°
2026-05-05 10:08 50.03717 8.95650 7630 ft 274 kts 57°
2026-05-05 10:09 50.04606 8.98222 7320 ft 270 kts 69°
2026-05-05 10:09 50.05246 9.00949 7001 ft 268 kts 73°
2026-05-05 10:09 50.05843 9.03719 6691 ft 266 kts 73°
2026-05-05 10:09 50.06428 9.06376 6534 ft 258 kts 72°
2026-05-05 10:10 50.07014 9.08957 6331 ft 247 kts 71°
2026-05-05 10:10 50.07851 9.11193 6104 ft 239 kts 44°
2026-05-05 10:10 50.09260 9.12443 5822 ft 233 kts 12°
2026-05-05 10:10 50.10889 9.12506 5332 ft 242 kts 353°
2026-05-05 10:11 50.12545 9.12044 5035 ft 241 kts 345°
2026-05-05 10:11 50.13973 9.10937 4967 ft 227 kts 313°
2026-05-05 10:11 50.14739 9.08917 4975 ft 210 kts 283°
2026-05-05 10:11 50.14798 9.06716 4993 ft 204 kts 263°
2026-05-05 10:12 50.14587 9.04510 4998 ft 204 kts 258°
2026-05-05 10:12 50.14267 9.02330 5012 ft 211 kts 253°
2026-05-05 10:12 50.13855 9.00129 5010 ft 213 kts 252°
2026-05-05 10:12 50.13413 8.97941 4893 ft 209 kts 251°
2026-05-05 10:13 50.12950 8.95813 4588 ft 211 kts 250°
2026-05-05 10:13 50.12451 8.93646 4331 ft 211 kts 250°
2026-05-05 10:13 50.11947 8.91525 4094 ft 210 kts 250°
2026-05-05 10:13 50.11436 8.89413 4008 ft 209 kts 249°
2026-05-05 10:14 50.10917 8.87289 4000 ft 210 kts 250°
2026-05-05 10:14 50.10400 8.85172 3833 ft 211 kts 250°
2026-05-05 10:14 50.09874 8.83020 3550 ft 210 kts 250°
2026-05-05 10:14 50.09365 8.80932 3276 ft 208 kts 250°
2026-05-05 10:15 50.08861 8.78856 2997 ft 205 kts 250°
2026-05-05 10:15 50.08373 8.76842 2810 ft 192 kts 250°
2026-05-05 10:15 50.07917 8.74953 2543 ft 181 kts 250°
2026-05-05 10:15 50.07496 8.73210 2312 ft 165 kts 251°
2026-05-05 10:16 50.07109 8.71603 2072 ft 151 kts 251°
2026-05-05 10:16 50.06753 8.70128 1851 ft 139 kts 251°
2026-05-05 10:16 50.06426 8.68741 1678 ft 137 kts 255°
2026-05-05 10:16 50.06295 8.67286 1436 ft 136 kts 268°
2026-05-05 10:17 50.06218 8.65830 1221 ft 136 kts 257°
2026-05-05 10:17 50.05882 8.64457 1064 ft 135 kts 249°
2026-05-05 10:17 50.05555 8.63082 951 ft 135 kts 250°
2026-05-05 10:17 50.05232 8.61715 815 ft 135 kts 250°
2026-05-05 10:18 50.04906 8.60345 668 ft 136 kts 251°
2026-05-05 10:18 50.04583 8.58993 463 ft 134 kts 250°
2026-05-05 10:18 50.04273 8.57690 366 ft 113 kts 249°
2026-05-05 10:18 50.04066 8.56828 359 ft 57 kts 250°
2026-05-05 10:19 50.03990 8.56449 353 ft 25 kts 270°
2026-05-05 10:19 50.04004 8.56267 353 ft 14 kts 280°
2026-05-05 10:19 50.04023 8.56155 354 ft 9 kts 308°
2026-05-05 10:19 50.04082 8.56138 356 ft 8 kts 30°
2026-05-05 10:20 50.04110 8.56206 358 ft 7 kts 69°
2026-05-05 10:20 50.04134 8.56274 358 ft 6 kts 37°
2026-05-05 10:20 50.04175 8.56278 360 ft 5 kts 343°
2026-05-05 10:20 50.04208 8.56259 361 ft 3 kts 339°
2026-05-05 10:21 50.04232 8.56245 361 ft 6 kts 339°
2026-05-05 10:21 50.04289 8.56199 362 ft 9 kts 303°
2026-05-05 10:21 50.04296 8.56094 362 ft 10 kts 308°
2026-05-05 10:21 50.04359 8.56046 364 ft 10 kts 340°
2026-05-05 10:22 50.04424 8.56040 365 ft 9 kts 33°
2026-05-05 10:22 50.04456 8.56132 366 ft 10 kts 69°
2026-05-05 10:22 50.04481 8.56237 366 ft 10 kts 71°
2026-05-05 10:22 50.04507 8.56346 367 ft 10 kts 70°
2026-05-05 10:23 50.04539 8.56429 368 ft 8 kts 34°
2026-05-05 10:23 50.04586 8.56464 369 ft 7 kts 25°
2026-05-05 10:23 50.04628 8.56495 370 ft 6 kts 26°
2026-05-05 10:23 50.04663 8.56522 370 ft 4 kts 40°
2026-05-05 10:24 50.04667 8.56560 371 ft 4 kts 103°
2026-05-05 10:24 50.04654 8.56613 372 ft 5 kts 114°
2026-05-05 10:24 50.04642 8.56653 372 ft 1 kts 114°
2026-05-05 10:24 50.04639 8.56662 372 ft 0 kts 115°
2026-05-05 10:25 50.04639 8.56663 372 ft 0 kts 115°